Dubuque, IA

11:13 AM CST on December 12, 2019 (GMT -0600)
Dubuque Regional

Weather History for KDBQ - November, 2019

Change the Weather History Date:

Tuesday, November 12, 2019

  Actual Average Record
Temperature  
Mean Temperature 4 °F 39 °F  
Max Temperature 13 °F 47 °F 69 °F (1902)
Min Temperature -5 °F 31 °F 6 °F (1986)
Degree Days  
Heating Degree Days 61 26  
Month to date heating degree days 453 282  
Since 1 July heating degree days 1086 931  
Cooling Degree Days 0 0  
Month to date cooling degree days 0 0  
Year to date cooling degree days 679 643  
Moisture  
Dew Point -2 °F    
Average Humidity 65    
Maximum Humidity 79    
Minimum Humidity 47    
Precipitation  
Precipitation T in 0.08 in 1.34 in (1922)
Month to date precipitation 0.56 0.97  
Year to date precipitation 51.89 33.07  
Snow  
Snow T in 0.10 in - ()
Month to date snowfall 4.7 0.4  
Since 1 July snowfall 13.9 0.4  
Since 1 September snowfall 13.9 0.4  
Snow Depth 3.00 in    
Sea Level Pressure  
Sea Level Pressure 30.50 in    
Wind  
Wind Speed 8 mph ()    
Max Wind Speed 16 mph    
Max Gust Speed 22 mph    
Visibility 9.7 miles    
Events Snow    
T = Trace of Precipitation, MM = Missing Value Source: Averaged Metar Reports

Daily Weather History Graph

Daily Weather History Graph

Search for Another Location

Airport or City:

Astronomy

Nov. 12, 2019 Rise Set
Actual Time 6:49 AM CST 4:43 PM CST
Civil Twilight 6:19 AM CST 5:13 PM CST
Nautical Twilight 5:45 AM CST 5:47 PM CST
Astronomical Twilight 5:12 AM CST 6:20 PM CST
Moon 5:11 PM CST 6:40 AM CST
Length of Visible Light 10h 53m
Length of Day
9h 53m
Full, 100% of the Moon is Illuminated
Nov 12
Full
Nov 19
Last Quarter
Nov 26
New
Dec 4
First Quarter
Dec 11
Full

Hourly Weather History & Observations

Time (CST) Temp. Windchill Dew Point Humidity Pressure Visibility Wind Dir Wind Speed Gust Speed Precip Events Conditions
12:10 AM 8.6 °F -6.3 °F 3.2 °F 79% 30.49 in 3.0 mi NNW 11.5 mph - N/A Snow Light Snow
12:21 AM 9.0 °F -7.9 °F 1.9 °F 73% 30.50 in 9.0 mi NNW 15.0 mph - 0.00 in Snow Light Snow
12:53 AM 8.1 °F -7.0 °F 1.0 °F 73% 30.56 in 10.0 mi NNW 11.5 mph - 0.00 in   Clear
1:53 AM 5.0 °F -10.8 °F -4.0 °F 66% 30.58 in 10.0 mi NNW 11.5 mph - N/A   Clear
2:53 AM 1.0 °F -14.0 °F -6.0 °F 72% 30.58 in 10.0 mi NW 9.2 mph - N/A   Clear
3:53 AM 1.9 °F -12.9 °F -6.0 °F 69% 30.57 in 10.0 mi NW 9.2 mph - N/A   Clear
4:53 AM 1.0 °F -12.9 °F -6.0 °F 72% 30.59 in 10.0 mi NW 8.1 mph - N/A   Clear
5:53 AM -2.9 °F -11.2 °F -8.0 °F 79% 30.60 in 10.0 mi SW 3.5 mph - N/A   Clear
6:53 AM -4.0 °F -14.6 °F -9.0 °F 79% 30.60 in 10.0 mi WSW 4.6 mph - N/A   Clear
7:53 AM -0.0 °F -9.9 °F -6.0 °F 76% 30.61 in 10.0 mi West 4.6 mph - N/A   Clear
8:53 AM 6.1 °F -5.6 °F -2.9 °F 67% 30.61 in 10.0 mi NW 6.9 mph - N/A   Clear
9:53 AM 9.0 °F -0.9 °F -2.0 °F 61% 30.60 in 10.0 mi NW 5.8 mph - N/A   Clear
10:53 AM 12.0 °F 4.1 °F -4.0 °F 49% 30.60 in 9.0 mi North 4.6 mph - 0.00 in Snow Light Snow
11:53 AM 12.0 °F 2.7 °F -2.9 °F 51% 30.57 in 10.0 mi Variable 5.8 mph - 0.00 in   Clear
12:53 PM 10.9 °F 0.2 °F -2.9 °F 54% 30.53 in 10.0 mi SW 6.9 mph - N/A   Clear
1:53 PM 12.9 °F 2.6 °F -4.0 °F 47% 30.52 in 10.0 mi SW 6.9 mph - N/A   Clear
2:53 PM 12.9 °F 0.7 °F -0.9 °F 54% 30.50 in 10.0 mi SW 9.2 mph - N/A   Clear
3:53 PM 10.9 °F -0.8 °F -2.9 °F 54% 30.49 in 10.0 mi WSW 8.1 mph - N/A   Clear
4:53 PM 10.0 °F 3.6 °F -0.9 °F 61% 30.47 in 10.0 mi South 3.5 mph - N/A   Clear
5:53 PM 9.0 °F -2.2 °F -2.0 °F 61% 30.44 in 10.0 mi South 6.9 mph - N/A   Clear
6:53 PM 9.0 °F -5.1 °F -0.9 °F 64% 30.42 in 10.0 mi South 10.4 mph - N/A   Clear
7:53 PM 10.0 °F -5.2 °F -0.0 °F 64% 30.37 in 10.0 mi South 12.7 mph - N/A   Clear
8:53 PM 10.0 °F -3.7 °F -0.0 °F 64% 30.35 in 10.0 mi South 10.4 mph - N/A   Clear
9:53 PM 10.0 °F -5.2 °F -0.0 °F 64% 30.32 in 10.0 mi South 12.7 mph 19.6 mph N/A   Clear
10:53 PM 10.9 °F -4.1 °F 1.0 °F 64% 30.33 in 10.0 mi South 12.7 mph - N/A   Clear
11:53 PM 10.0 °F -5.2 °F 1.0 °F 67% 30.30 in 10.0 mi South 12.7 mph - N/A   Clear